Location: Unspecified
(0.0000°N, 0.0000°E)
Time: 22:37:17
(UTC+02:00)

Amateur Radio Satellites - All Passes

Search period start: 28 June 2016 22:07
Search period end: 29 June 2016 22:07
Location: Unspecified, 0.0000°N, 0.0000°E

Satellite Date Start Highest point End Downlink Frequencies (MHz)
Time Altitude Azimuth
Oscar 11 28 Jun 22:12:05 22:15:13 20° 78° (ENE) 22:18:21 145.826/435.025
FUNcube-1 28 Jun 22:19:43 22:22:45 20° 78° (ENE) 22:25:47 145.935
UWE-3 28 Jun 22:21:56 22:25:51 41° 79° (ENE) 22:29:45 435.000/436.395/437.385
AO-85 28 Jun 22:24:02 22:28:02 21° 292° (WNW) 22:32:05 145.980
M-CUBED/EXP-1 PRIME 28 Jun 22:25:17 22:28:47 54° 75° (ENE) 22:32:04 437.505
CANX-2 28 Jun 22:33:39 22:36:07 15° 258° (WSW) 22:38:36 2200.000
COMPASS 1 28 Jun 22:34:28 22:38:23 39° 259° (WSW) 22:42:18 437.405
RS-15 28 Jun 22:47:13 22:57:55 35° 68° (ENE) 23:08:12 29.354- 29.394
SRMSAT 28 Jun 22:47:15 22:50:26 15° 12° (NNE) 22:53:37 437.500
SEEDS 28 Jun 22:58:35 23:00:18 12° 258° (WSW) 23:02:02 437.485
ANTELSAT 28 Jun 23:01:37 23:03:48 13° 102° (ESE) 23:05:59 437.575/2403.000
PRISM 28 Jun 23:10:50 23:12:35 13° 282° (WNW) 23:14:21 437.425
CUBEBUG 2 28 Jun 23:11:30 23:14:35 20° 258° (WSW) 23:17:39 437.445
HUMSAT D 28 Jun 23:15:55 23:19:00 21° 78° (ENE) 23:22:05 437.325/437.525
JUGNU 28 Jun 23:20:30 23:26:17 55° 21° (NNE) 23:32:03 437.505
AUBIESAT-1 28 Jun 23:21:05 23:23:48 21° 253° (WSW) 23:26:23 437.475
ZACube-1 28 Jun 23:37:49 23:41:09 24° 258° (WSW) 23:44:30 437.345
DELFI C3 28 Jun 23:48:09 23:51:55 39° 259° (W) 23:55:40 145.870
Oscar 11 28 Jun 23:48:20 23:51:05 17° 258° (WSW) 23:53:51 145.826/435.025
TIGRISAT 28 Jun 23:50:42 23:55:20 60° 102° (ESE) 23:59:58 435.000
UNISAT 6 28 Jun 23:55:45 00:00:27 77° 101° (E) 00:05:08 437.425
FUNcube-1 28 Jun 23:56:27 23:58:45 14° 258° (WSW) 00:01:01 145.935
NANOSAT C BR1 29 Jun 00:13:00 00:13:30 10° 102° (ESE) 00:14:01 145.865
QB50P1 29 Jun 00:14:43 00:16:27 12° 102° (ESE) 00:18:12 145.935-145.965
POPSAT HIP 1 29 Jun 00:17:35 00:19:41 13° 102° (ESE) 00:21:46 437.405
QB50P2 29 Jun 00:28:39 00:31:58 22° 102° (ESE) 00:35:17 145.880/145.840
50 SAT 29 Jun 00:30:27 00:32:16 13° 78° (ENE) 00:34:04 437.505
DUCHIFAT 1 29 Jun 00:31:03 00:34:03 19° 102° (ESE) 00:37:04 145.980
POLYITAN 1 29 Jun 00:31:13 00:34:35 23° 102° (ESE) 00:37:58 437.675
Cosmos 2491 29 Jun 00:31:47 00:37:40 20° 93° (E) 00:43:30 435.465 / 435.565
SRMSAT 29 Jun 00:34:56 00:40:09 32° 19° (NNE) 00:45:21 437.500
ANTELSAT 29 Jun 00:36:06 00:40:13 30° 282° (WNW) 00:44:20 437.575/2403.000
ESTCUBE 1 29 Jun 00:40:41 00:44:54 38° 78° (ENE) 00:49:06 437.505/2401.250
AISAT 29 Jun 00:45:30 00:49:09 25° 78° (ENE) 00:52:46 437.250
UKube-1 29 Jun 00:47:25 00:49:20 13° 78° (ENE) 00:51:14 .
HUMSAT D 29 Jun 00:52:13 00:54:21 14° 258° (WSW) 00:56:31 437.325/437.525
RS-15 29 Jun 00:58:43 01:09:56 44° 250° (WSW) 01:20:49 29.354- 29.394
DX 1 29 Jun 01:05:17 01:09:12 32° 78° (ENE) 01:13:04 434.975-435.025
JUGNU 29 Jun 01:09:35 01:15:20 54° 201° (SSW) 01:21:04 437.505
BUGSAT 1 29 Jun 01:25:56 01:29:53 42° 102° (ESE) 01:33:54 437.445
CUBEBUG 1 29 Jun 01:32:04 01:36:26 63° 258° (WSW) 01:40:45 437.445
VELOX 1 29 Jun 01:40:12 01:44:34 55° 258° (WSW) 01:48:53 145.980
BEESAT 3 29 Jun 01:41:03 01:43:45 18° 112° (ESE) 01:46:27 437.485
YUBILEINY 29 Jun 01:43:04 01:51:50 71° 87° (E) 02:00:37 435.215
NANOSAT C BR1 29 Jun 01:45:12 01:48:57 30° 282° (WNW) 01:52:42 145.865
QB50P1 29 Jun 01:48:24 01:51:57 26° 282° (WNW) 01:55:32 145.935-145.965
POPSAT HIP 1 29 Jun 01:51:44 01:55:11 24° 282° (WNW) 01:58:39 437.405
50 SAT 29 Jun 02:03:16 02:05:40 17° 258° (WSW) 02:08:05 437.505
QB50P2 29 Jun 02:05:06 02:07:29 15° 282° (WNW) 02:09:54 145.880/145.840
DUCHIFAT 1 29 Jun 02:06:43 02:09:29 17° 282° (WNW) 02:12:16 145.980
POLYITAN 1 29 Jun 02:07:47 02:10:08 14° 282° (WNW) 02:12:28 437.675
TISAT 1 29 Jun 02:08:03 02:11:02 19° 78° (ENE) 02:14:00 437.305
PCSat 29 Jun 02:15:28 02:20:54 87° 291° (WNW) 02:26:18 145.827
BEESAT 2 29 Jun 02:18:18 02:21:42 28° 112° (ESE) 02:25:07 435.950
UKube-1 29 Jun 02:21:30 02:25:06 26° 258° (WSW) 02:28:41 .
SPROUT 29 Jun 02:22:36 02:26:34 38° 258° (WSW) 02:30:30 437.525
AISAT 29 Jun 02:23:04 02:25:21 14° 257° (WSW) 02:27:37 437.250
SRMSAT 29 Jun 02:23:29 02:29:25 86° 21° (NNE) 02:35:22 437.500
Cosmos 2491 29 Jun 02:25:40 02:34:06 51° 273° (W) 02:42:31 435.465 / 435.565
DX 1 29 Jun 02:44:38 02:45:05 10° 257° (WSW) 02:45:33 434.975-435.025
Cosmos 2504 29 Jun 02:49:41 02:57:58 56° 87° (E) 03:05:41 435.465 / 435.565
JAS-2 29 Jun 02:50:41 02:55:33 42° 282° (WNW) 03:00:30 435.910
Oscar 19 29 Jun 02:55:13 03:00:16 63° 102° (ESE) 03:05:22 437.125/150
JUGNU 29 Jun 03:00:13 03:04:36 21° 196° (SSW) 03:08:59 437.505
BEESAT 29 Jun 03:02:35 03:04:53 13° 77° (ENE) 03:07:11 436.000
ITUPSAT 1 29 Jun 03:03:38 03:05:59 14° 77° (ENE) 03:08:20 437.325
Gurwin Techsat 1B 29 Jun 03:13:18 03:18:05 35° 103° (ESE) 03:22:53 435.225
BEESAT 3 29 Jun 03:18:58 03:21:10 15° 292° (WNW) 03:23:22 437.485
O/OREOS (USA 219) 29 Jun 03:23:37 03:28:01 49° 284° (WNW) 03:32:23 437.305
SO-50 29 Jun 03:25:46 03:30:04 50° 68° (ENE) 03:34:19 436.795
TISAT 1 29 Jun 03:43:52 03:46:25 16° 258° (WSW) 03:48:58 437.305
YUBILEINY 29 Jun 03:44:49 03:48:14 13° 267° (W) 03:51:42 435.215
SWISSCUBE 29 Jun 04:12:27 04:17:08 58° 258° (WSW) 04:21:49 437.505
SRMSAT 29 Jun 04:13:20 04:18:40 35° 199° (SSW) 04:24:03 437.500
BEESAT 29 Jun 04:38:13 04:42:23 30° 257° (WSW) 04:46:33 436.000
AIST 2 29 Jun 04:38:38 04:42:42 61° 111° (ESE) 04:46:44 435.215
ITUPSAT 1 29 Jun 04:39:22 04:43:32 30° 258° (WSW) 04:47:43 437.325
PHONESAT 2.4 29 Jun 04:41:50 04:44:48 46° 317° (NW) 04:47:45 2401.200-2431.200
Cosmos 2504 29 Jun 04:46:06 04:50:48 16° 268° (W) 04:55:22 435.465 / 435.565
JUGNU 29 Jun 04:52:43 04:54:24 11° 188° (S) 04:56:05 437.505
Gurwin Techsat 1B 29 Jun 04:54:52 04:57:46 15° 283° (WNW) 05:00:40 435.225
ITAMSAT 1 29 Jun 04:57:21 05:02:20 47° 283° (WNW) 05:07:19 435.822/435.867
AIST 1 29 Jun 05:06:36 05:07:59 11° 86° (E) 05:09:22
AO-7 29 Jun 05:06:41 05:14:54 64° 106° (ESE) 05:23:07 29.400- 29.500
MOZHAYETS 4 29 Jun 05:15:16 05:19:41 48° 79° (ENE) 05:24:07
KKS-1 29 Jun 05:23:32 05:27:58 75° 78° (ENE) 05:32:22 437.445
STARS 29 Jun 05:55:07 05:59:30 85° 78° (ENE) 06:03:51 437.465
SRMSAT 29 Jun 06:04:51 06:08:21 16° 193° (SSW) 06:11:52 437.500
AIST 1 29 Jun 06:41:48 06:45:17 24° 266° (W) 06:48:47
CUBESAT XI-V 29 Jun 06:43:23 06:47:56 49° 78° (ENE) 06:52:28 437.345
HORYU 2 29 Jun 07:01:46 07:05:51 35° 282° (WNW) 07:09:58 437.375
AO-7 29 Jun 07:02:37 07:07:15 16° 287° (WNW) 07:11:54 29.400- 29.500
NOAA 18 29 Jun 07:03:07 07:07:09 21° 104° (ESE) 07:11:11 137.9125
Cubesat XI-IV 29 Jun 07:06:38 07:10:23 19° 103° (ESE) 07:14:07 437.490
ISS 29 Jun 07:20:33 07:23:49 81° 305° (NW) 07:27:03 145.825
Cosmos 2499 29 Jun 07:25:39 07:33:20 44° 86° (E) 07:40:29 435.465 / 435.565
BRITE-PL 29 Jun 07:27:56 07:32:06 50° 102° (ESE) 07:36:34 437.365/2234.400
CUTE-I 29 Jun 07:39:26 07:44:35 49° 102° (ESE) 07:49:45 437.470
GONETS M04 29 Jun 07:40:35 07:49:21 86° 267° (W) 07:58:12
GOMX 1 29 Jun 07:59:49 08:04:12 51° 102° (ESE) 08:08:55 467.674
LilacSat-2 29 Jun 08:03:41 08:07:33 69° 281° (W) 08:11:26 437.200
NOAA 15 29 Jun 08:06:38 08:11:41 50° 283° (WNW) 08:16:45 137.62
STRAND 1 29 Jun 08:12:07 08:16:11 24° 77° (ENE) 08:20:15 437.568
CUSAT 1 29 Jun 08:19:27 08:27:26 85° 95° (E) 08:35:18 437.405
JUGNU 29 Jun 08:31:09 08:34:37 16° 167° (SSE) 08:38:05 437.505
NOAA 18 29 Jun 08:42:53 08:47:31 28° 283° (WNW) 08:52:11 137.9125
DANDE 29 Jun 08:45:00 08:52:31 63° 94° (E) 09:00:48 436.750
Cubesat XI-IV 29 Jun 08:45:41 08:50:10 28° 283° (WNW) 08:54:40 437.490
AO-85 29 Jun 08:57:18 09:00:56 36° 68° (ENE) 09:04:27 145.980
DOVE 4 29 Jun 08:58:11 09:02:50 69° 281° (WNW) 09:07:49 437.250
CANX-2 29 Jun 09:03:31 09:07:01 25° 101° (E) 09:10:32 2200.000
Cosmos 2499 29 Jun 09:20:21 09:25:57 21° 268° (W) 09:31:21 435.465 / 435.565
CUTE 1.7 + AOD 2 29 Jun 09:22:57 09:26:56 41° 101° (ESE) 09:30:56 437.475
SEEDS 29 Jun 09:26:33 09:30:12 29° 102° (ESE) 09:33:50 437.485
PRISM 29 Jun 09:36:59 09:40:27 25° 78° (ENE) 09:43:53 437.425
AUBIESAT-1 29 Jun 09:46:12 09:48:21 13° 107° (ESE) 09:50:31 437.475
CUBEBUG 2 29 Jun 09:46:39 09:50:31 25° 102° (ESE) 09:54:24 437.445
SRMSAT 29 Jun 09:46:51 09:48:58 12° 172° (S) 09:51:05 437.500
CINEMA 3 29 Jun 09:51:09 09:55:55 63° 281° (WNW) 10:00:52 145.822/145.860
STRAND 1 29 Jun 09:51:23 09:55:05 20° 257° (WSW) 09:58:47 437.568
HO-68 29 Jun 09:52:35 09:59:46 83° 285° (WNW) 10:06:59 435.675
AAUSAT CUBESAT 2 29 Jun 10:04:07 10:08:05 50° 101° (ESE) 10:12:06 437.432
CUSAT 1 29 Jun 10:07:22 10:09:09 11° 274° (W) 10:10:57 437.405
ZACube-1 29 Jun 10:11:43 10:15:00 19° 102° (ESE) 10:18:15 437.345
JUGNU 29 Jun 10:18:44 10:24:06 35° 160° (SSE) 10:29:29 437.505
Oscar 11 29 Jun 10:20:18 10:23:54 26° 102° (ESE) 10:27:30 145.826/435.025
M-CUBED/EXP-1 PRIME 29 Jun 10:23:30 10:27:49 58° 106° (ESE) 10:32:23 437.505
FUNcube-1 29 Jun 10:28:18 10:32:18 30° 102° (ESE) 10:36:17 145.935
RS-15 29 Jun 10:30:27 10:39:04 26° 111° (ESE) 10:47:48 29.354- 29.394
DANDE 29 Jun 10:30:33 10:35:16 17° 277° (W) 10:40:12 436.750
UWE-3 29 Jun 10:32:21 10:36:59 66° 102° (ESE) 10:41:37 435.000/436.395/437.385
COMPASS 1 29 Jun 10:38:53 10:42:36 33° 281° (WNW) 10:46:21 437.405
CANX-2 29 Jun 10:40:57 10:42:37 12° 282° (WNW) 10:44:17 2200.000
PRISM 29 Jun 11:13:53 11:15:29 12° 257° (WSW) 11:17:04 437.425
ANTELSAT 29 Jun 11:14:12 11:17:00 17° 78° (ENE) 11:19:49 437.575/2403.000
AUBIESAT-1 29 Jun 11:18:38 11:22:27 30° 285° (WNW) 11:26:28 437.475
HUMSAT D 29 Jun 11:20:21 11:23:52 25° 102° (ESE) 11:27:22 437.325/437.525
CUBEBUG 2 29 Jun 11:23:51 11:26:52 17° 282° (WNW) 11:29:52 437.445
SRMSAT 29 Jun 11:34:20 11:38:57 23° 164° (SSE) 11:43:34 437.500
DELFI C3 29 Jun 11:47:04 11:50:46 40° 281° (WNW) 11:54:29 145.870
ZACube-1 29 Jun 11:47:41 11:51:00 20° 282° (WNW) 11:54:19 437.345
Oscar 11 29 Jun 11:57:55 11:59:46 13° 282° (WNW) 12:01:37 145.826/435.025
TIGRISAT 29 Jun 12:04:11 12:08:25 89° 264° (W) 12:12:40 435.000
FUNcube-1 29 Jun 12:06:23 12:08:15 12° 282° (WNW) 12:10:08 145.935
JUGNU 29 Jun 12:07:15 12:13:12 85° 338° (NNW) 12:19:11 437.505
UNISAT 6 29 Jun 12:09:30 12:13:44 68° 258° (WSW) 12:17:58 437.425
NANOSAT C BR1 29 Jun 12:17:43 12:19:23 12° 78° (ENE) 12:21:02 145.865
QB50P1 29 Jun 12:20:21 12:22:41 15° 78° (ENE) 12:25:00 145.935-145.965
POPSAT HIP 1 29 Jun 12:23:24 12:25:58 16° 78° (ENE) 12:28:31 437.405
YUBILEINY 29 Jun 12:24:41 12:28:57 15° 93° (E) 12:33:13 435.215
QB50P2 29 Jun 12:34:53 12:38:24 26° 78° (ENE) 12:41:54 145.880/145.840
DUCHIFAT 1 29 Jun 12:36:26 12:39:40 22° 78° (ENE) 12:42:52 145.980
POLYITAN 1 29 Jun 12:37:29 12:41:02 27° 78° (ENE) 12:44:34 437.675
RS-15 29 Jun 12:40:27 12:50:55 52° 291° (WNW) 13:01:53 29.354- 29.394
ANTELSAT 29 Jun 12:50:34 12:53:28 18° 258° (WSW) 12:56:23 437.575/2403.000
ESTCUBE 1 29 Jun 12:54:32 12:58:56 61° 101° (ESE) 13:03:22 437.505/2401.250
UKube-1 29 Jun 12:55:00 12:57:46 17° 103° (ESE) 13:00:32 .
AISAT 29 Jun 12:56:40 13:00:42 36° 102° (ESE) 13:04:47 437.250
HUMSAT D 29 Jun 12:57:23 12:59:13 13° 282° (WNW) 13:01:02 437.325/437.525
SPROUT 29 Jun 12:57:26 12:58:12 10° 102° (ESE) 12:58:59 437.525
Cosmos 2491 29 Jun 13:03:16 13:11:15 40° 87° (E) 13:19:15 435.465 / 435.565
PCSat 29 Jun 13:10:09 13:13:55 19° 70° (ENE) 13:17:41 145.827
DX 1 29 Jun 13:14:35 13:18:42 44° 102° (ESE) 13:22:51 434.975-435.025
SRMSAT 29 Jun 13:22:31 13:28:25 56° 159° (SSE) 13:34:18 437.500
BUGSAT 1 29 Jun 13:29:18 13:33:14 46° 78° (ENE) 13:37:06 437.445
BEESAT 3 29 Jun 13:33:25 13:36:12 19° 68° (ENE) 13:38:58 437.485
CUBEBUG 1 29 Jun 13:42:15 13:46:21 44° 282° (WNW) 13:50:31 437.445
NANOSAT C BR1 29 Jun 13:51:25 13:54:51 24° 258° (WSW) 13:58:15 145.865
VELOX 1 29 Jun 13:52:00 13:56:03 37° 282° (WNW) 14:00:09 145.980
50 SAT 29 Jun 13:52:45 13:55:41 23° 281° (WNW) 13:58:36 437.505
QB50P1 29 Jun 13:55:03 13:58:12 21° 258° (WSW) 14:01:21 145.935-145.965
JUGNU 29 Jun 13:57:06 14:02:21 32° 341° (NNW) 14:07:37 437.505
O/OREOS (USA 219) 29 Jun 13:58:06 13:59:44 12° 76° (ENE) 14:01:23 437.305
POPSAT HIP 1 29 Jun 13:58:29 14:01:29 19° 258° (WSW) 14:04:28 437.405
BEESAT 2 29 Jun 14:11:47 14:15:16 30° 68° (ENE) 14:18:46 435.950
QB50P2 29 Jun 14:12:32 14:13:56 11° 258° (WSW) 14:15:20 145.880/145.840
TISAT 1 29 Jun 14:12:51 14:16:13 23° 102° (ESE) 14:19:34 437.305
DUCHIFAT 1 29 Jun 14:12:58 14:15:05 14° 258° (WSW) 14:17:12 145.980
POLYITAN 1 29 Jun 14:15:24 14:16:33 11° 258° (WSW) 14:17:43 437.675
YUBILEINY 29 Jun 14:16:48 14:25:21 63° 273° (W) 14:33:55 435.215
JAS-2 29 Jun 14:20:36 14:28:30 90° 258° (WSW) 14:36:12 435.910
SPROUT 29 Jun 14:30:06 14:33:52 30° 282° (WNW) 14:37:39 437.525
UKube-1 29 Jun 14:30:26 14:33:32 20° 282° (WNW) 14:36:40 .
PCSat 29 Jun 14:52:31 14:57:02 28° 250° (WSW) 15:01:35 145.827
SWISSCUBE 29 Jun 14:59:08 15:01:33 14° 103° (ESE) 15:03:59 437.505
Cosmos 2504 29 Jun 15:00:27 15:07:58 71° 93° (E) 15:16:01 435.465 / 435.565
Cosmos 2491 29 Jun 15:00:57 15:07:41 25° 267° (W) 15:14:30 435.465 / 435.565
BEESAT 3 29 Jun 15:11:26 15:13:36 14° 248° (WSW) 15:15:48 437.485
SRMSAT 29 Jun 15:11:47 15:17:39 54° 339° (NNW) 15:23:30 437.500
BEESAT 29 Jun 15:22:47 15:26:44 26° 103° (ESE) 15:30:39 436.000
ITUPSAT 1 29 Jun 15:24:16 15:28:14 26° 103° (ESE) 15:32:12 437.325
Oscar 19 29 Jun 15:29:05 15:34:06 49° 257° (WSW) 15:39:03 437.125/150
O/OREOS (USA 219) 29 Jun 15:34:58 15:38:51 28° 255° (WSW) 15:42:45 437.305
SO-50 29 Jun 15:37:46 15:42:35 83° 294° (WNW) 15:47:27 436.795
AO-7 29 Jun 15:47:27 15:49:00 11° 72° (ENE) 15:50:33 29.400- 29.500
JUGNU 29 Jun 15:48:41 15:51:57 15° 348° (NNW) 15:55:12 437.505
TISAT 1 29 Jun 15:49:28 15:51:36 14° 282° (WNW) 15:53:44 437.305
Gurwin Techsat 1B 29 Jun 15:51:19 15:56:38 81° 257° (WSW) 16:01:56 435.225
ITAMSAT 1 29 Jun 15:53:45 15:58:08 28° 77° (ENE) 16:02:30 435.822/435.867
PHONESAT 2.4 29 Jun 16:09:41 16:12:46 90° 46° (NE) 16:15:52 2401.200-2431.200
SWISSCUBE 29 Jun 16:34:57 16:39:04 29° 282° (WNW) 16:43:11 437.505
AIST 2 29 Jun 16:36:51 16:40:59 78° 67° (ENE) 16:45:08 435.215
Cosmos 2504 29 Jun 17:00:13 17:01:12 10° 275° (W) 17:02:11 435.465 / 435.565
BEESAT 29 Jun 17:01:21 17:04:14 16° 283° (WNW) 17:07:07 436.000
SRMSAT 29 Jun 17:02:36 17:07:07 22° 344° (NNW) 17:11:37 437.500
ITUPSAT 1 29 Jun 17:02:58 17:05:48 16° 283° (WNW) 17:08:38 437.325
AIST 1 29 Jun 17:11:53 17:14:42 17° 94° (E) 17:17:31
MOZHAYETS 4 29 Jun 17:31:48 17:36:24 84° 100° (E) 17:41:00
AO-7 29 Jun 17:32:57 17:41:16 83° 254° (WSW) 17:49:36 29.400- 29.500
ITAMSAT 1 29 Jun 17:33:52 17:37:19 18° 257° (WSW) 17:40:45 435.822/435.867
KKS-1 29 Jun 17:35:53 17:40:20 73° 281° (W) 17:44:48 437.445
HORYU 2 29 Jun 17:39:37 17:42:03 15° 77° (ENE) 17:44:28 437.375
STARS 29 Jun 18:05:53 18:10:16 67° 282° (WNW) 18:14:41 437.465
GONETS M04 29 Jun 18:20:21 18:26:46 23° 93° (E) 18:33:05
AIST 1 29 Jun 18:49:04 18:52:01 18° 273° (W) 18:54:58
ISS 29 Jun 18:54:13 18:57:24 55° 54° (NE) 19:00:36 145.825
SRMSAT 29 Jun 18:55:14 18:57:07 11° 352° (N) 18:59:00 437.500
CUBESAT XI-V 29 Jun 19:01:34 19:06:09 87° 104° (ESE) 19:10:45 437.345
NOAA 15 29 Jun 19:05:04 19:09:37 29° 77° (ENE) 19:14:08 137.62
HORYU 2 29 Jun 19:14:49 19:18:20 24° 258° (WSW) 19:21:52 437.375
JUGNU 29 Jun 19:29:52 19:32:16 12° 9° (N) 19:34:39 437.505
Cosmos 2499 29 Jun 19:34:04 19:41:31 55° 93° (E) 19:49:33 435.465 / 435.565
Cubesat XI-IV 29 Jun 19:44:41 19:49:55 57° 77° (ENE) 19:55:07 437.490
DOVE 4 29 Jun 19:45:59 19:46:51 10° 80° (E) 19:47:42 437.250
NOAA 18 29 Jun 19:46:11 19:51:35 67° 77° (ENE) 19:56:59 137.9125
BRITE-PL 29 Jun 19:54:13 19:59:44 68° 258° (WSW) 20:04:53 437.365/2234.400
LilacSat-2 29 Jun 19:58:23 20:02:09 85° 259° (W) 20:05:54 437.200
GONETS M04 29 Jun 20:15:00 20:23:11 45° 273° (W) 20:31:20
CUTE-I 29 Jun 20:18:44 20:23:57 56° 258° (WSW) 20:29:09 437.470
GOMX 1 29 Jun 20:23:46 20:28:53 74° 258° (WSW) 20:33:38 467.674
STRAND 1 29 Jun 20:43:43 20:48:46 61° 102° (ESE) 20:53:48 437.568
NOAA 15 29 Jun 20:45:34 20:49:06 18° 257° (WSW) 20:52:38 137.62
CUSAT 1 29 Jun 21:04:52 21:05:50 11° 264° (W) 21:06:49 437.405
AO-85 29 Jun 21:07:59 21:13:16 82° 112° (ESE) 21:18:43 145.980
CANX-2 29 Jun 21:09:43 21:13:31 32° 78° (ENE) 21:17:18 2200.000
COMPASS 1 29 Jun 21:11:12 21:11:33 10° 78° (ENE) 21:11:56 437.405
JUGNU 29 Jun 21:17:17 21:22:01 24° 17° (NNE) 21:26:45 437.505
DOVE 4 29 Jun 21:20:07 21:24:23 33° 257° (WSW) 21:28:24 437.250
CUTE 1.7 + AOD 2 29 Jun 21:29:10 21:33:19 52° 78° (ENE) 21:37:27 437.475
Cosmos 2499 29 Jun 21:30:04 21:34:26 16° 275° (W) 21:39:00 435.465 / 435.565
SEEDS 29 Jun 21:31:38 21:35:30 35° 79° (E) 21:39:22 437.485
DANDE 29 Jun 21:36:12 21:38:21 18° 267° (W) 21:40:20 436.750
PRISM 29 Jun 21:39:45 21:43:11 27° 102° (ESE) 21:46:37 437.425
HO-68 29 Jun 21:44:13 21:51:23 84° 76° (ENE) 21:58:32 435.675
CUBEBUG 2 29 Jun 21:59:17 22:02:59 32° 79° (ENE) 22:06:40 437.445
